Location: Unspecified
(0.0000°N, 0.0000°E)
Time: 23:02:17
(UTC+00:00)

Vanguard 1 Rocket - Pass Details

Date: 13 December 2017
Orbit: 654 x 4223 km, 34.3° (Epoch: 22 April)

Event Time Altitude Azimuth Distance (km) Brightness Sun altitude
Rises 05:17:16 0° 263° (W) 7,733 11.6 -8.5°
Reaches altitude 10° 05:27:14 10° 242° (WSW) 5,874 11.2 -6.2°
Maximum altitude 05:34:51 14° 215° (SW) 4,706 10.9 -4.4°
Drops below altitude 10° 05:40:44 10° 186° (S) 4,338 11.1 -3.1°
Sets 05:45:56 0° 161° (SSE) 4,653 11.7 -1.9°
